Location: Goettingen
(51.5300°N, 9.9433°E)
Time: 17:26:29
(UTC+02:00)

FLOCK 4Q 25 - Visible Passes

Search period start: 12 July 2024 00:00
Search period end: 22 July 2024 00:00
Orbit: 496 x 512 km, 97.5° (Epoch: 12 July)

Date Brightness Start Highest point End Pass type
(mag) Time Alt. Az. Time Alt. Az. Time Alt. Az.
12 Jul ? 00:08:48 11° SW 00:11:27 22° W 00:14:25 10° NW visible
12 Jul ? 22:16:16 10° ESE 22:19:19 24° ENE 22:22:21 10° N visible
12 Jul ? 23:50:21 14° SSW 23:53:01 33° W 23:56:26 10° NNW visible
13 Jul ? 23:31:52 16° S 23:34:37 53° W 23:38:16 10° NNW visible
14 Jul ? 23:13:23 16° SSE 23:16:15 86° WSW 23:19:58 10° NNW visible
15 Jul ? 22:54:52 14° SSE 22:57:55 59° ENE 23:01:34 10° N visible
16 Jul ? 00:30:07 10° WSW 00:32:07 14° W 00:34:07 10° WNW visible
16 Jul ? 22:36:21 11° SE 22:39:36 37° ENE 22:43:02 10° N visible
17 Jul ? 00:11:07 12° SW 00:13:34 21° W 00:16:26 10° NW visible
17 Jul ? 22:18:14 10° ESE 22:21:18 25° ENE 22:24:22 10° N visible
17 Jul ? 23:52:34 16° SSW 23:55:01 32° W 23:58:23 10° NNW visible
18 Jul ? 23:34:00 18° S 23:36:31 50° W 23:40:08 10° NNW visible
19 Jul ? 23:15:25 18° S 23:18:03 82° WSW 23:21:45 10° NNW visible
20 Jul ? 22:56:49 16° SSE 22:59:36 62° ENE 23:03:15 10° N visible
21 Jul ? 00:31:58 10° WSW 00:33:49 13° W 00:35:42 10° WNW visible
21 Jul ? 22:38:12 13° SE 22:41:11 39° ENE 22:44:38 10° N visible
